Location: Rounton
(54.4000°N, 1.3500°W)
Time: 07:11:16
(UTC+01:00)

deb Agena D - Pass Details

Date: 11 June 2023
Orbit: 996 x 1023 km, 100.1° (Epoch: 29 September)

Event Time Altitude Azimuth Distance (km) Brightness Sun altitude
Exits shadow 02:57:07 - 228° (SW) 2,915 ? -8.9°
Reaches altitude 10° 02:57:42 10° 232° (SW) 2,775 ? -8.8°
Maximum altitude 03:01:48 18° 274° (W) 2,240 ? -8.6°
Drops below altitude 10° 03:05:55 10° 315° (NW) 2,779 ? -8.3°
Sets 03:09:20 0° 334° (NNW) 3,732 ? -8.1°
